STARLINK-32650, 62231

Orbit data source: Space-Track

STARLINK-32650, 62231 is a payload satellite owned by SpaceX/Seattle (US) in LEO that was launched on Thu, 05 Dec 2024 UTC via an FALCON 9 launch vehicle from the Air Force Western Test Range (AFWTR). Payload-class satellites include a variety of spacecraft equipped with specific instruments for various scientific and technological missions. These include communications satellites like Starlink; space stations such as the ISS; scientific satellites like the Hubble; Earth observation satellites from companies like Planet Labs, Umbra, and HawkEye 360; GPS; miniature CubeSats for education and research; and military/defense satellites.

Loading next visibility...
Identifier
62231, 2024-231P
Orbit
LEO
Last TLE update
11 hours ago
Origin
Manufacturer
SpaceX/Seattle
Mission
Operational Commercial Communications
Bus & Motor
STARLINK V2M, Unknown motor
Mass
730 kg wet, ~700 kg dry
Launch date (UTC)
2024-12-05 (7 months ago)
Launch vehicle
FALCON 9
Launch site
Air Force Western Test Range (AFWTR)
Object type
Payload
Rocket body
Debris
Shape & HBR
Box + 2 Pan, 29 m
Radar Cross Section
33.884 m², Large (>1 m²)

Expand to show TLE details & history

TLE from 11 hours ago
0 STARLINK-32650
1 62231U 24231P   25182.73605912  .00012176  00000-0  42251-3 0  9991
2 62231  53.1599 305.4718 0001026  86.4797 273.6321 15.30201893 33345
Epoch: 2025-07-01T17:39Z
TLE epoch observation values (Epoch: 2025-07-01T17:39:55.507Z)
Latitude
-0.00005°
Longitude
120.46324°
Altitude
476.065 km
Speed
7.629 km/s
True Right ascension
20h 21m 53s
True Declination
0° 00' 00"
Sunlit
Object was in full shadow at epoch
Visualization orbit readout
Latitude
-13.84118°
Longitude
107.77586°
Altitude
479.07 km
Speed
7.626 km/s
Apparent Right ascension
22h 39m 12s
Apparent Declination
-48° 27' 14"
Sunlit
Object is in full shadow
Visualization observer readout
Local Sidereal Time
16:15:11
Azimuth
128.757° SE
Elevation
-32.238°
Doppler factor
1
Orbital elements
Apogee altitude
476.169 km
Perigee altitude
474.763 km
Semi-major axis
6,853.603 km
Eccentricity
0.0001
Inclination
53.1599°
RAAN
305.4718°
Arg. of periapsis
86.4797°
True anomaly
Unknown
Mean anomaly
273.6321°
Eccentric anomaly
Unknown
Mean motion
3.82529 °/min
Orbital period
94.11 mins
BSTAR
0.00042251
Loading maneuver chart data...
Loading SW <> Apogee altitude chart data...
Loading historical data...
Loading historical data...
Loading historical data...
Loading historical data...
Loading historical data...
Loading historical data...
Loading historical data...

STARLINK-32650 Visibility forecast

Observer location: undefined°, undefined°

Span
Click to sort rows by Start time (UTC) header in descending order
Start Az.
Max El. time (UTC)
Max El. Az.
Max El.
End time (UTC)
End Az.
5 mins2025-07-02 11:06:46.359Z238.152° WSW2025-07-02 11:08:46.359Z339.167° N44.111°2025-07-02 11:11:46.359Z46.633° ENE
5 mins2025-07-02 17:41:46.359Z311.055° NW2025-07-02 17:43:46.359Z75.015° E44.976°2025-07-02 17:46:46.359Z130.145° SE
|